SL-12 R/B(AUX MOTOR), 29680

Orbit data source: Space-Track

SL-12 R/B(AUX MOTOR), 29680 is space debris in HEO originally from a launch on Mon, 25 Dec 2006 UTC launched from the Tyuratam Missile And Space Complex (TTMTR). Debris objects in space refer to the collection of defunct objects orbiting the Earth. Examples of debris include non-operational satellites, rocket bodies, and fragments generated from explosions, collisions, or faulty payload assembly.

Loading next visibility...
Identifier
29680, 2006-062G
Orbit
HEO
Last TLE update
2 days ago
Origin
Manufacturer
RKKE
Mission
Spacecraft
Bus & Motor
SOZ, Unknown motor
Mass
56 kg wet, 56 kg dry
Launch date (UTC)
2006-12-25 (19 years ago)
Launch vehicle
Unknown
Launch site
Tyuratam Missile And Space Complex (TTMTR)
Object type
Payload
Rocket body
Debris
Shape & HBR
Cyl, 1.1 m
Radar Cross Section
0.660 m², Medium (>0.1 m² and < 1m²)

Expand to show TLE details & history

TLE from 2 days ago
0 SL-12 R/B(AUX MOTOR)
1 29680U 06062G   25181.39178824  .00000034  00000-0 -31375-4 0  9999
2 29680  65.1595 161.9356 5670008 228.2014  67.2476  4.25850916185459
Epoch: 2025-06-30T09:24Z
TLE epoch observation values (Epoch: 2025-06-30T09:24:10.503Z)
Latitude
-0°
Longitude
102.17913°
Altitude
11,177.409 km
Speed
4.541 km/s
True Right ascension
10h 47m 42s
True Declination
0° 00' 00"
Sunlit
Object was in daylight at epoch
Visualization orbit readout
Latitude
56.75578°
Longitude
146.17746°
Altitude
17,135.43 km
Speed
3.022 km/s
Apparent Right ascension
15h 09m 27s
Apparent Declination
49° 25' 23"
Sunlit
Object is in daylight
Visualization observer readout
Local Sidereal Time
08:06:28
Azimuth
41.979° NE
Elevation
20.608°
Doppler factor
1
Orbital elements
Apogee altitude
18,814.2 km
Perigee altitude
583.099 km
Semi-major axis
16,076.786 km
Eccentricity
0.567
Inclination
65.1595°
RAAN
161.9356°
Arg. of periapsis
228.2014°
True anomaly
Unknown
Mean anomaly
67.2476°
Eccentric anomaly
Unknown
Mean motion
1.06474 °/min
Orbital period
338.11 mins
BSTAR
-0.000031375
Loading maneuver chart data...
Loading SW <> Apogee altitude chart data...
Loading historical data...
Loading historical data...
Loading historical data...
Loading historical data...
Loading historical data...
Loading historical data...
Loading historical data...

SL-12 R/B(AUX MOTOR) Visibility forecast

Observer location: undefined°, undefined°

Span
Click to sort rows by Start time (UTC) header in descending order
Start Az.
Max El. time (UTC)
Max El. Az.
Max El.
End time (UTC)
End Az.
37 mins2025-07-02 20:22:26.767Z42° NE2025-07-02 20:22:26.767Z42° NE19.388°2025-07-02 20:59:26.767Z27.746° NE
251 mins2025-07-02 23:07:26.767Z189.846° SSW2025-07-03 01:03:26.767Z279.166° WNW44.726°2025-07-03 03:18:26.767Z47.735° ENE
149 mins2025-07-03 06:52:26.767Z307.298° NW2025-07-03 09:07:26.767Z65.539° ENE44.795°2025-07-03 09:21:26.767Z144.756° SSE
|